Lucknow, India

10:39 AM IST on June 26, 2017 (GMT +0530)
Lucknow

Weather History for VILK - November, 2013

Change the Weather History Date:

Wednesday, November 27, 2013

  Actual Average Record
Temperature  
Mean Temperature 66 °F -  
Max Temperature 83 °F 69 °F 83 °F (2013)
Min Temperature 48 °F 52 °F 43 °F (2014)
Growing Degree Days 16 (Base 50)    
Moisture  
Dew Point 58 °F    
Average Humidity 71    
Maximum Humidity 88    
Minimum Humidity 41    
Precipitation  
Precipitation 0.00 in - - ()
Sea Level Pressure  
Sea Level Pressure 29.91 in    
Wind  
Wind Speed 2 mph ()    
Max Wind Speed 4 mph    
Max Gust Speed -    
Visibility 1.4 miles    
Events      
Averages and records for this station are not official NWS values.
T = Trace of Precipitation, MM = Missing Value Source: Averaged Metar Reports

Daily Weather History Graph

Daily Weather History Graph

Search for Another Location

Airport or City:

Trip Planner

Search our weather history database for the weather conditions in past years. The results will help you decide how hot, cold, wet, or windy it might be!

Date:

Astronomy

Nov. 27, 2013 Rise Set
Actual Time 6:34 AM IST 5:13 PM IST
Civil Twilight 6:09 AM IST 5:38 PM IST
Nautical Twilight 5:41 AM IST 6:06 PM IST
Astronomical Twilight 5:13 AM IST 6:34 PM IST
Moon 12:41 AM IST (11/27) 1:06 PM IST (11/27)
Length of Visible Light 11h 28m
Length of Day
10h 38m
Waning Crescent, 36% of the Moon is Illuminated
Nov 27
Waning Crescent
Dec 3
New
Dec 9
First Quarter
Dec 17
Full
Dec 25
Last Quarter

Hourly Weather History & Observations

Time (IST) Temp. Heat Index Dew Point Humidity Pressure Visibility Wind Dir Wind Speed Gust Speed Precip Events Conditions
12:00 AM 57.2 °F - 53.6 °F 88% 29.86 in 1.6 mi Variable 1.2 mph - N/A   Mist
1:00 AM 55.4 °F - 51.8 °F 88% 29.86 in 1.6 mi West 2.3 mph - N/A   Mist
2:00 AM 55.4 °F - 51.8 °F 88% 29.86 in 1.2 mi Variable 2.3 mph - N/A   Mist
2:30 AM 55 °F - 52 °F 84% 29.90 in 1 mi 1.2 mph - -   Mist
4:00 AM 55.4 °F - 51.8 °F 88% 29.86 in 0.9 mi Variable 2.3 mph - N/A   Mist
5:00 AM 55.4 °F - 50.0 °F 82% 29.89 in 0.9 mi West 3.5 mph - N/A   Mist
5:30 AM 53 °F - 51 °F 88% 29.91 in 1 mi West 3.5 mph - -   Mist
6:00 AM 53.6 °F - 50.0 °F 88% 29.89 in 0.9 mi WNW 3.5 mph - N/A   Mist
6:30 AM 55.4 °F - 51.8 °F 88% 29.92 in 0.9 mi WNW 3.5 mph - N/A   Mist
7:00 AM 55.4 °F - 51.8 °F 88% 29.92 in 0.9 mi WNW 3.5 mph - N/A   Mist
8:00 AM 59.0 °F - 55.4 °F 88% 29.95 in 0.7 mi Variable 2.3 mph - N/A   Mist
8:30 AM 61 °F - 56 °F 77% 29.97 in 1 mi Calm Calm - -   Mist
8:30 AM 60.8 °F - 55.4 °F 82% 29.95 in 0.7 mi Calm Calm - N/A   Mist
10:30 AM 73.4 °F - 60.8 °F 65% 29.95 in 1.2 mi Variable 2.3 mph - N/A   Haze
11:00 AM 75.2 °F - 60.8 °F 61% 29.95 in 1.2 mi Variable 2.3 mph - N/A   Haze
11:30 AM 76 °F - 62 °F 52% 29.96 in 1 mi 2.3 mph - -   Haze
11:30 AM 77.0 °F - 62.6 °F 61% 29.95 in 1.2 mi Variable 2.3 mph - N/A   Haze
12:00 PM 77.0 °F - 60.8 °F 57% 29.95 in 1.2 mi Variable 2.3 mph - N/A   Haze
12:30 PM 80.6 °F 81.8 °F 62.6 °F 54% 29.92 in 1.6 mi Calm Calm - N/A   Haze
1:30 PM 80.6 °F 81.5 °F 60.8 °F 51% 29.89 in 1.9 mi Variable 2.3 mph - N/A   Haze
2:00 PM 80.6 °F 81.5 °F 60.8 °F 51% 29.86 in 1.9 mi Variable 2.3 mph - N/A   Haze
2:30 PM 82 °F - 62 °F 41% 29.88 in 1 mi 2.3 mph - -   Haze
2:30 PM 82.4 °F 83.4 °F 62.6 °F 51% 29.86 in 1.9 mi Variable 2.3 mph - N/A   Haze
3:00 PM 82.4 °F 83.4 °F 62.6 °F 51% 29.86 in 1.9 mi Variable 2.3 mph - N/A   Haze
3:30 PM 82.4 °F 83.4 °F 62.6 °F 51% 29.86 in 1.9 mi Variable 2.3 mph - N/A   Haze
4:00 PM 82.4 °F 83.4 °F 62.6 °F 51% 29.86 in 1.9 mi Variable 2.3 mph - N/A   Haze
4:30 PM 80.6 °F 81.5 °F 60.8 °F 51% 29.86 in 1.9 mi Variable 2.3 mph - N/A   Haze
5:00 PM 80.6 °F 81.5 °F 60.8 °F 51% 29.89 in 1.9 mi Calm Calm - N/A   Haze
5:30 PM 71 °F - 61 °F 64% 29.90 in 1 mi Calm Calm - -   Haze
5:30 PM 71.6 °F - 60.8 °F 69% 29.89 in 1.9 mi Calm Calm - N/A   Haze
6:00 PM 69.8 °F - 60.8 °F 73% 29.89 in 1.9 mi Calm Calm - N/A   Haze
7:00 PM 69.8 °F - 60.8 °F 73% 29.92 in 1.9 mi Calm Calm - N/A   Haze
7:30 PM 68.0 °F - 60.8 °F 78% 29.92 in 1.9 mi Calm Calm - N/A   Haze
8:00 PM 66.2 °F - 60.8 °F 83% 29.95 in 1.9 mi Calm Calm - N/A   Haze
8:30 PM 64 °F - 58 °F 76%  in 1 mi 2.3 mph - -   Haze
8:30 PM 64.4 °F - 59.0 °F 83% 29.95 in 1.9 mi Variable 2.3 mph - N/A   Haze
9:00 PM 62.6 °F - 57.2 °F 82% 29.98 in 1.9 mi Variable 2.3 mph - N/A   Haze
10:00 PM 62.6 °F - 57.2 °F 82% 29.98 in 1.6 mi Variable 2.3 mph - N/A   Partly Cloudy
11:00 PM 62.6 °F - 57.2 °F 82% 29.98 in 1.2 mi Calm Calm - N/A   Mist
11:30 PM 62 °F - 58 °F 81% 29.99 in 1 mi 2.3 mph - -   Mist